Year,Month,Day,Hour,Minute,Value (Times are PST for windgust in km/hr)
2016,08,21,00,00,3.20
2016,08,21,00,01,3.20
2016,08,21,00,02,4.80
2016,08,21,00,03,6.40
2016,08,21,00,04,6.40
2016,08,21,00,05,4.80
2016,08,21,00,06,6.40
2016,08,21,00,07,6.40
2016,08,21,00,08,4.80
2016,08,21,00,09,6.40
2016,08,21,00,10,4.80
2016,08,21,00,11,6.40
2016,08,21,00,12,6.40
2016,08,21,00,13,8.10
2016,08,21,00,14,6.40
2016,08,21,00,15,6.40
2016,08,21,00,16,6.40
2016,08,21,00,17,4.80
2016,08,21,00,18,3.20
2016,08,21,00,19,3.20
2016,08,21,00,20,4.80
2016,08,21,00,21,3.20
2016,08,21,00,22,1.60
2016,08,21,00,23,3.20
2016,08,21,00,24,3.20
2016,08,21,00,25,3.20
2016,08,21,00,26,4.80
2016,08,21,00,27,6.40
2016,08,21,00,28,6.40
2016,08,21,00,29,6.40
2016,08,21,00,30,8.10
2016,08,21,00,31,6.40
2016,08,21,00,32,6.40
2016,08,21,00,33,6.40
2016,08,21,00,34,6.40
2016,08,21,00,35,6.40
2016,08,21,00,36,6.40
2016,08,21,00,37,4.80
2016,08,21,00,38,8.10
2016,08,21,00,39,8.10
2016,08,21,00,40,6.40
2016,08,21,00,41,4.80
2016,08,21,00,42,8.10
2016,08,21,00,43,6.40
2016,08,21,00,44,4.80
2016,08,21,00,45,6.40
2016,08,21,00,46,6.40
2016,08,21,00,47,4.80
2016,08,21,00,48,6.40
2016,08,21,00,49,4.80
2016,08,21,00,50,4.80
2016,08,21,00,51,4.80
2016,08,21,00,52,6.40
2016,08,21,00,53,6.40
2016,08,21,00,54,6.40
2016,08,21,00,55,6.40
2016,08,21,00,56,4.80
2016,08,21,00,57,4.80
2016,08,21,00,58,3.20
2016,08,21,00,59,3.20
2016,08,21,01,00,3.20
2016,08,21,01,01,3.20
2016,08,21,01,02,3.20
2016,08,21,01,03,3.20
2016,08,21,01,04,1.60
2016,08,21,01,05,1.60
2016,08,21,01,06,1.60
2016,08,21,01,20,4.80
2016,08,21,01,21,6.40
2016,08,21,01,22,4.80
2016,08,21,01,23,3.20
2016,08,21,01,29,3.20
2016,08,21,01,30,1.60
2016,08,21,01,55,4.80
2016,08,21,01,56,4.80
2016,08,21,01,57,3.20
2016,08,21,01,58,3.20
2016,08,21,01,59,3.20
2016,08,21,02,00,3.20
2016,08,21,02,01,1.60
2016,08,21,02,10,4.80
2016,08,21,02,11,3.20
2016,08,21,02,12,1.60
2016,08,21,02,13,1.60
2016,08,21,02,14,1.60
2016,08,21,02,15,3.20
2016,08,21,02,16,3.20
2016,08,21,02,49,3.20
2016,08,21,02,50,1.60
2016,08,21,02,51,1.60
2016,08,21,02,52,3.20
2016,08,21,02,53,3.20
2016,08,21,02,54,3.20
2016,08,21,02,55,1.60
2016,08,21,02,56,3.20
2016,08,21,02,57,1.60
2016,08,21,02,58,1.60
2016,08,21,02,59,3.20
2016,08,21,03,00,3.20
2016,08,21,03,01,3.20
2016,08,21,03,02,1.60
2016,08,21,03,03,1.60
2016,08,21,03,05,1.60
2016,08,21,03,06,3.20
2016,08,21,03,07,3.20
2016,08,21,03,08,3.20
2016,08,21,03,09,3.20
2016,08,21,03,10,3.20
2016,08,21,03,11,3.20
2016,08,21,03,27,3.20
2016,08,21,03,28,4.80
2016,08,21,03,29,3.20
2016,08,21,03,30,3.20
2016,08,21,03,31,3.20
2016,08,21,03,32,3.20
2016,08,21,03,33,3.20
2016,08,21,03,34,3.20
2016,08,21,03,35,4.80
2016,08,21,03,36,6.40
2016,08,21,03,37,6.40
2016,08,21,03,38,4.80
2016,08,21,03,39,4.80
2016,08,21,03,40,4.80
2016,08,21,03,41,6.40
2016,08,21,03,42,6.40
2016,08,21,03,43,6.40
2016,08,21,03,44,6.40
2016,08,21,03,45,6.40
2016,08,21,03,46,6.40
2016,08,21,03,47,6.40
2016,08,21,03,48,6.40
2016,08,21,03,49,4.80
2016,08,21,03,50,6.40
2016,08,21,03,51,4.80
2016,08,21,03,52,3.20
2016,08,21,03,53,6.40
2016,08,21,03,54,6.40
2016,08,21,03,55,6.40
2016,08,21,03,56,6.40
2016,08,21,03,57,6.40
2016,08,21,03,58,4.80
2016,08,21,03,59,6.40
2016,08,21,04,00,6.40
2016,08,21,04,01,6.40
2016,08,21,04,02,8.10
2016,08,21,04,03,6.40
2016,08,21,04,04,6.40
2016,08,21,04,05,6.40
2016,08,21,04,06,6.40
2016,08,21,04,07,4.80
2016,08,21,04,08,6.40
2016,08,21,04,09,8.10
2016,08,21,04,10,8.10
2016,08,21,04,11,6.40
2016,08,21,04,12,8.10
2016,08,21,04,13,4.80
2016,08,21,04,14,4.80
2016,08,21,04,15,3.20
2016,08,21,04,16,4.80
2016,08,21,04,17,4.80
2016,08,21,04,18,6.40
2016,08,21,04,19,6.40
2016,08,21,04,20,4.80
2016,08,21,04,21,4.80
2016,08,21,04,22,3.20
2016,08,21,04,23,3.20
2016,08,21,04,24,3.20
2016,08,21,04,25,3.20
2016,08,21,04,26,3.20
2016,08,21,04,27,4.80
2016,08,21,04,28,6.40
2016,08,21,04,29,3.20
2016,08,21,04,30,1.60
2016,08,21,04,31,3.20
2016,08,21,04,32,3.20
2016,08,21,04,33,3.20
2016,08,21,04,34,3.20
2016,08,21,04,35,4.80
2016,08,21,04,36,4.80
2016,08,21,04,37,3.20
2016,08,21,04,38,4.80
2016,08,21,04,39,3.20
2016,08,21,04,40,3.20
2016,08,21,04,41,1.60
2016,08,21,04,52,3.20
2016,08,21,04,53,3.20
2016,08,21,04,54,1.60
2016,08,21,04,58,3.20
2016,08,21,04,59,3.20
2016,08,21,05,00,3.20
2016,08,21,05,01,3.20
2016,08,21,05,02,3.20
2016,08,21,05,03,1.60
2016,08,21,05,04,1.60
2016,08,21,05,05,1.60
2016,08,21,05,06,1.60
2016,08,21,05,07,1.60
2016,08,21,05,08,1.60
2016,08,21,05,09,1.60
2016,08,21,06,07,4.80
2016,08,21,06,08,6.40
2016,08,21,06,09,9.60
2016,08,21,06,10,4.80
2016,08,21,06,11,8.10
2016,08,21,06,12,12.90
2016,08,21,06,13,4.80
2016,08,21,06,14,6.40
2016,08,21,06,15,6.40
2016,08,21,06,16,6.40
2016,08,21,06,17,4.80
2016,08,21,06,18,4.80
2016,08,21,06,19,6.40
2016,08,21,06,20,4.80
2016,08,21,06,21,4.80
2016,08,21,06,22,3.20
2016,08,21,06,23,3.20
2016,08,21,06,24,3.20
2016,08,21,06,25,3.20
2016,08,21,06,26,6.40
2016,08,21,06,27,4.80
2016,08,21,06,28,6.40
2016,08,21,06,29,6.40
2016,08,21,06,30,6.40
2016,08,21,06,31,11.30
2016,08,21,06,32,11.30
2016,08,21,06,33,8.10
2016,08,21,06,34,11.30
2016,08,21,06,35,11.30
2016,08,21,06,36,6.40
2016,08,21,06,37,4.80
2016,08,21,06,38,3.20
2016,08,21,06,39,4.80
2016,08,21,06,40,4.80
2016,08,21,06,41,6.40
2016,08,21,06,42,4.80
2016,08,21,06,43,6.40
2016,08,21,06,44,4.80
2016,08,21,06,45,4.80
2016,08,21,06,46,4.80
2016,08,21,06,47,6.40
2016,08,21,06,48,6.40
2016,08,21,06,49,6.40
2016,08,21,06,50,6.40
2016,08,21,06,51,11.30
2016,08,21,06,52,11.30
2016,08,21,06,53,11.30
2016,08,21,06,54,9.60
2016,08,21,06,55,11.30
2016,08,21,06,56,9.60
2016,08,21,06,57,11.30
2016,08,21,06,58,9.60
2016,08,21,06,59,11.30
2016,08,21,07,00,8.10
2016,08,21,07,01,9.60
2016,08,21,07,02,14.50
2016,08,21,07,03,14.50
2016,08,21,07,04,11.30
2016,08,21,07,05,9.60
2016,08,21,07,06,6.40
2016,08,21,07,07,6.40
2016,08,21,07,08,9.60
2016,08,21,07,09,9.60
2016,08,21,07,10,9.60
2016,08,21,07,11,4.80
2016,08,21,07,12,4.80
2016,08,21,07,13,8.10
2016,08,21,07,14,8.10
2016,08,21,07,15,4.80
2016,08,21,07,16,3.20
2016,08,21,07,17,3.20
2016,08,21,07,18,3.20
2016,08,21,07,19,4.80
2016,08,21,07,20,4.80
2016,08,21,07,21,4.80
2016,08,21,07,22,6.40
2016,08,21,07,23,6.40
2016,08,21,07,24,6.40
2016,08,21,07,25,4.80
2016,08,21,07,26,6.40
2016,08,21,07,27,6.40
2016,08,21,07,28,6.40
2016,08,21,07,29,6.40
2016,08,21,07,30,4.80
2016,08,21,07,31,4.80
2016,08,21,07,32,4.80
2016,08,21,07,33,4.80
2016,08,21,07,34,6.40
2016,08,21,07,35,6.40
2016,08,21,07,36,4.80
2016,08,21,07,37,4.80
2016,08,21,07,38,4.80
2016,08,21,07,39,3.20
2016,08,21,07,40,4.80
2016,08,21,07,41,4.80
2016,08,21,07,42,4.80
2016,08,21,07,43,4.80
2016,08,21,07,44,4.80
2016,08,21,07,45,4.80
2016,08,21,07,46,4.80
2016,08,21,07,47,4.80
2016,08,21,07,48,4.80
2016,08,21,07,49,4.80
2016,08,21,07,50,6.40
2016,08,21,07,51,4.80
2016,08,21,07,52,3.20
2016,08,21,07,53,4.80
2016,08,21,07,54,3.20
2016,08,21,07,55,3.20
2016,08,21,07,56,3.20
2016,08,21,07,57,1.60
2016,08,21,07,58,3.20
2016,08,21,07,59,4.80
2016,08,21,08,00,3.20
2016,08,21,08,01,1.60
2016,08,21,08,05,4.80
2016,08,21,08,06,3.20
2016,08,21,08,07,4.80
2016,08,21,08,08,3.20
2016,08,21,08,09,3.20
2016,08,21,08,10,1.60
2016,08,21,08,11,4.80
2016,08,21,08,12,4.80
2016,08,21,08,13,4.80
2016,08,21,08,14,3.20
2016,08,21,08,15,3.20
2016,08,21,08,16,3.20
2016,08,21,08,17,4.80
2016,08,21,08,18,4.80
2016,08,21,08,19,6.40
2016,08,21,08,20,4.80
2016,08,21,08,21,3.20
2016,08,21,08,22,6.40
2016,08,21,08,23,4.80
2016,08,21,08,24,4.80
2016,08,21,08,25,6.40
2016,08,21,08,26,6.40
2016,08,21,08,27,8.10
2016,08,21,08,28,8.10
2016,08,21,08,29,6.40
2016,08,21,08,30,9.60
2016,08,21,08,31,12.90
2016,08,21,08,32,9.60
2016,08,21,08,33,6.40
2016,08,21,08,34,9.60
2016,08,21,08,35,8.10
2016,08,21,08,36,4.80
2016,08,21,08,37,6.40
2016,08,21,08,38,4.80
2016,08,21,08,39,8.10
2016,08,21,08,40,6.40
2016,08,21,08,41,4.80
2016,08,21,08,42,4.80
2016,08,21,08,43,4.80
2016,08,21,08,44,4.80
2016,08,21,08,45,6.40
2016,08,21,08,46,4.80
2016,08,21,08,47,3.20
2016,08,21,08,48,4.80
2016,08,21,08,49,8.10
2016,08,21,08,50,16.10
2016,08,21,08,51,19.30
2016,08,21,08,52,14.50
2016,08,21,08,53,14.50
2016,08,21,08,54,14.50
2016,08,21,08,55,16.10
2016,08,21,08,56,16.10
2016,08,21,08,57,16.10
2016,08,21,08,58,17.70
2016,08,21,08,59,14.50
2016,08,21,09,00,17.70
2016,08,21,09,01,14.50
2016,08,21,09,02,12.90
2016,08,21,09,03,11.30
2016,08,21,09,04,6.40
2016,08,21,09,05,11.30
2016,08,21,09,06,14.50
2016,08,21,09,07,6.40
2016,08,21,09,08,11.30
2016,08,21,09,09,8.10
2016,08,21,09,10,6.40
2016,08,21,09,11,8.10
2016,08,21,09,12,8.10
2016,08,21,09,13,6.40
2016,08,21,09,14,6.40
2016,08,21,09,15,6.40
2016,08,21,09,16,4.80
2016,08,21,09,17,4.80
2016,08,21,09,18,8.10
2016,08,21,09,19,3.20
2016,08,21,09,20,3.20
2016,08,21,09,21,3.20
2016,08,21,09,22,1.60
2016,08,21,09,23,6.40
2016,08,21,09,24,4.80
2016,08,21,09,25,8.10
2016,08,21,09,26,4.80
2016,08,21,09,27,6.40
2016,08,21,09,28,6.40
2016,08,21,09,29,4.80
2016,08,21,09,30,6.40
2016,08,21,09,31,8.10
2016,08,21,09,32,8.10
2016,08,21,09,33,11.30
2016,08,21,09,34,9.60
2016,08,21,09,35,4.80
2016,08,21,09,36,4.80
2016,08,21,09,37,4.80
2016,08,21,09,38,8.10
2016,08,21,09,39,8.10
2016,08,21,09,40,4.80
2016,08,21,09,41,6.40
2016,08,21,09,42,6.40
2016,08,21,09,43,6.40
2016,08,21,09,44,8.10
2016,08,21,09,45,6.40
2016,08,21,09,46,4.80
2016,08,21,09,47,9.60
2016,08,21,09,48,12.90
2016,08,21,09,49,6.40
2016,08,21,09,50,6.40
2016,08,21,09,51,6.40
2016,08,21,09,52,4.80
2016,08,21,09,53,4.80
2016,08,21,09,54,6.40
2016,08,21,09,55,11.30
2016,08,21,09,56,14.50
2016,08,21,09,57,4.80
2016,08,21,09,58,3.20
2016,08,21,09,59,4.80
2016,08,21,10,00,8.10
2016,08,21,10,01,6.40
2016,08,21,10,02,6.40
2016,08,21,10,03,14.50
2016,08,21,10,04,9.60
2016,08,21,10,05,8.10
2016,08,21,10,06,8.10
2016,08,21,10,07,6.40
2016,08,21,10,08,12.90
2016,08,21,10,09,12.90
2016,08,21,10,10,16.10
2016,08,21,10,11,12.90
2016,08,21,10,12,14.50
2016,08,21,10,13,9.60
2016,08,21,10,14,12.90
2016,08,21,10,15,8.10
2016,08,21,10,16,12.90
2016,08,21,10,17,14.50
2016,08,21,10,18,14.50
2016,08,21,10,19,16.10
2016,08,21,10,20,8.10
2016,08,21,10,21,12.90
2016,08,21,10,22,29.00
2016,08,21,10,23,25.70
2016,08,21,10,24,20.90
2016,08,21,10,25,22.50
2016,08,21,10,26,27.40
2016,08,21,10,27,22.50
2016,08,21,10,28,22.50
2016,08,21,10,29,17.70
2016,08,21,10,30,20.90
2016,08,21,10,31,24.20
2016,08,21,10,32,14.50
2016,08,21,10,33,17.70
2016,08,21,10,34,14.50
2016,08,21,10,35,19.30
2016,08,21,10,36,14.50
2016,08,21,10,37,14.50
2016,08,21,10,38,9.60
2016,08,21,10,39,8.10
2016,08,21,10,40,20.90
2016,08,21,10,41,19.30
2016,08,21,10,42,12.90
2016,08,21,10,43,6.40
2016,08,21,10,44,14.50
2016,08,21,10,45,9.60
2016,08,21,10,46,19.30
2016,08,21,10,47,14.50
2016,08,21,10,48,9.60
2016,08,21,10,49,14.50
2016,08,21,10,50,9.60
2016,08,21,10,51,12.90
2016,08,21,10,52,9.60
2016,08,21,10,53,16.10
2016,08,21,10,54,14.50
2016,08,21,10,55,16.10
2016,08,21,10,56,12.90
2016,08,21,10,57,12.90
2016,08,21,10,58,12.90
2016,08,21,10,59,14.50
2016,08,21,11,00,16.10
2016,08,21,11,01,14.50
2016,08,21,11,02,12.90
2016,08,21,11,03,6.40
2016,08,21,11,04,14.50
2016,08,21,11,05,6.40
2016,08,21,11,06,6.40
2016,08,21,11,07,9.60
2016,08,21,11,08,8.10
2016,08,21,11,09,8.10
2016,08,21,11,10,9.60
2016,08,21,11,11,9.60
2016,08,21,11,12,6.40
2016,08,21,11,13,11.30
2016,08,21,11,14,14.50
2016,08,21,11,15,9.60
2016,08,21,11,16,9.60
2016,08,21,11,17,3.20
2016,08,21,11,18,4.80
2016,08,21,11,19,9.60
2016,08,21,11,20,6.40
2016,08,21,11,21,4.80
2016,08,21,11,22,9.60
2016,08,21,11,23,12.90
2016,08,21,11,24,8.10
2016,08,21,11,25,12.90
2016,08,21,11,26,9.60
2016,08,21,11,27,8.10
2016,08,21,11,28,14.50
2016,08,21,11,29,9.60
2016,08,21,11,30,9.60
2016,08,21,11,31,14.50
2016,08,21,11,32,8.10
2016,08,21,11,33,17.70
2016,08,21,11,34,12.90
2016,08,21,11,35,16.10
2016,08,21,11,36,16.10
2016,08,21,11,37,16.10
2016,08,21,11,38,14.50
2016,08,21,11,39,19.30
2016,08,21,11,40,19.30
2016,08,21,11,41,14.50
2016,08,21,11,42,14.50
2016,08,21,11,43,14.50
2016,08,21,11,44,17.70
2016,08,21,11,45,14.50
2016,08,21,11,46,16.10
2016,08,21,11,47,20.90
2016,08,21,11,48,16.10
2016,08,21,11,49,14.50
2016,08,21,11,50,17.70
2016,08,21,11,51,20.90
2016,08,21,11,52,20.90
2016,08,21,11,53,16.10
2016,08,21,11,54,20.90
2016,08,21,11,55,16.10
2016,08,21,11,56,19.30
2016,08,21,11,57,20.90
2016,08,21,11,58,20.90
2016,08,21,11,59,17.70
2016,08,21,12,00,20.90
2016,08,21,12,01,17.70
2016,08,21,12,02,20.90
2016,08,21,12,03,25.70
2016,08,21,12,04,22.50
2016,08,21,12,05,25.70
2016,08,21,12,06,20.90
2016,08,21,12,07,22.50
2016,08,21,12,08,25.70
2016,08,21,12,09,24.20
2016,08,21,12,10,24.20
2016,08,21,12,11,20.90
2016,08,21,12,12,17.70
2016,08,21,12,13,20.90
2016,08,21,12,14,22.50
2016,08,21,12,15,14.50
2016,08,21,12,16,27.40
2016,08,21,12,17,16.10
2016,08,21,12,18,14.50
2016,08,21,12,19,17.70
2016,08,21,12,20,20.90
2016,08,21,12,21,20.90
2016,08,21,12,22,16.10
2016,08,21,12,23,12.90
2016,08,21,12,24,24.20
2016,08,21,12,25,20.90
2016,08,21,12,26,16.10
2016,08,21,12,27,11.30
2016,08,21,12,28,9.60
2016,08,21,12,29,14.50
2016,08,21,12,30,17.70
2016,08,21,12,31,17.70
2016,08,21,12,32,19.30
2016,08,21,12,33,17.70
2016,08,21,12,34,17.70
2016,08,21,12,35,22.50
2016,08,21,12,36,14.50
2016,08,21,12,37,22.50
2016,08,21,12,38,25.70
2016,08,21,12,39,24.20
2016,08,21,12,40,20.90
2016,08,21,12,41,17.70
2016,08,21,12,42,20.90
2016,08,21,12,43,12.90
2016,08,21,12,44,16.10
2016,08,21,12,45,17.70
2016,08,21,12,46,16.10
2016,08,21,12,47,22.50
2016,08,21,12,48,17.70
2016,08,21,12,49,17.70
2016,08,21,12,50,19.30
2016,08,21,12,51,20.90
2016,08,21,12,52,30.60
2016,08,21,12,53,22.50
2016,08,21,12,54,19.30
2016,08,21,12,55,19.30
2016,08,21,12,56,20.90
2016,08,21,12,57,17.70
2016,08,21,12,58,17.70
2016,08,21,12,59,24.20
2016,08,21,13,00,20.90
2016,08,21,13,01,22.50
2016,08,21,13,02,20.90
2016,08,21,13,03,20.90
2016,08,21,13,04,17.70
2016,08,21,13,05,14.50
2016,08,21,13,06,17.70
2016,08,21,13,07,16.10
2016,08,21,13,08,17.70
2016,08,21,13,09,20.90
2016,08,21,13,10,14.50
2016,08,21,13,11,25.70
2016,08,21,13,12,24.20
2016,08,21,13,13,22.50
2016,08,21,13,14,20.90
2016,08,21,13,15,22.50
2016,08,21,13,16,19.30
2016,08,21,13,17,17.70
2016,08,21,13,18,29.00
2016,08,21,13,19,20.90
2016,08,21,13,20,25.70
2016,08,21,13,21,17.70
2016,08,21,13,22,20.90
2016,08,21,13,23,24.20
2016,08,21,13,24,24.20
2016,08,21,13,25,20.90
2016,08,21,13,26,19.30
2016,08,21,13,27,20.90
2016,08,21,13,28,9.60
2016,08,21,13,29,12.90
2016,08,21,13,30,16.10
2016,08,21,13,31,22.50
2016,08,21,13,32,12.90
2016,08,21,13,33,17.70
2016,08,21,13,34,19.30
2016,08,21,13,35,19.30
2016,08,21,13,36,16.10
2016,08,21,13,37,24.20
2016,08,21,13,38,22.50
2016,08,21,13,39,32.20
2016,08,21,13,40,14.50
2016,08,21,13,41,27.40
2016,08,21,13,42,25.70
2016,08,21,13,43,20.90
2016,08,21,13,44,14.50
2016,08,21,13,45,12.90
2016,08,21,13,46,14.50
2016,08,21,13,47,16.10
2016,08,21,13,48,16.10
2016,08,21,13,49,19.30
2016,08,21,13,50,20.90
2016,08,21,13,51,20.90
2016,08,21,13,52,14.50
2016,08,21,13,53,19.30
2016,08,21,13,54,19.30
2016,08,21,13,55,17.70
2016,08,21,13,56,20.90
2016,08,21,13,57,19.30
2016,08,21,13,58,19.30
2016,08,21,13,59,19.30
2016,08,21,14,00,17.70
2016,08,21,14,01,24.20
2016,08,21,14,02,22.50
2016,08,21,14,03,22.50
2016,08,21,14,04,22.50
2016,08,21,14,05,25.70
2016,08,21,14,06,29.00
2016,08,21,14,07,24.20
2016,08,21,14,08,19.30
2016,08,21,14,09,17.70
2016,08,21,14,10,20.90
2016,08,21,14,11,19.30
2016,08,21,14,12,20.90
2016,08,21,14,13,14.50
2016,08,21,14,14,25.70
2016,08,21,14,15,24.20
2016,08,21,14,16,14.50
2016,08,21,14,17,17.70
2016,08,21,14,18,32.20
2016,08,21,14,19,32.20
2016,08,21,14,20,27.40
2016,08,21,14,21,41.80
2016,08,21,14,22,38.60
2016,08,21,14,23,29.00
2016,08,21,14,24,25.70
2016,08,21,14,25,25.70
2016,08,21,14,26,38.60
2016,08,21,14,27,33.80
2016,08,21,14,28,32.20
2016,08,21,14,29,30.60
2016,08,21,14,30,24.20
2016,08,21,14,31,27.40
2016,08,21,14,32,32.20
2016,08,21,14,33,29.00
2016,08,21,14,34,38.60
2016,08,21,14,35,37.00
2016,08,21,14,36,27.40
2016,08,21,14,37,46.70
2016,08,21,14,38,37.00
2016,08,21,14,39,27.40
2016,08,21,14,40,17.70
2016,08,21,14,41,29.00
2016,08,21,14,42,25.70
2016,08,21,14,43,30.60
2016,08,21,14,44,32.20
2016,08,21,14,45,38.60
2016,08,21,14,46,24.20
2016,08,21,14,47,38.60
2016,08,21,14,48,38.60
2016,08,21,14,49,30.60
2016,08,21,14,50,33.80
2016,08,21,14,51,41.80
2016,08,21,14,52,30.60
2016,08,21,14,53,24.20
2016,08,21,14,54,29.00
2016,08,21,14,55,29.00
2016,08,21,14,56,35.40
2016,08,21,14,57,35.40
2016,08,21,14,58,24.20
2016,08,21,14,59,16.10
2016,08,21,15,00,19.30
2016,08,21,15,01,19.30
2016,08,21,15,02,32.20
2016,08,21,15,03,25.70
2016,08,21,15,04,24.20
2016,08,21,15,05,35.40
2016,08,21,15,06,24.20
2016,08,21,15,07,29.00
2016,08,21,15,08,32.20
2016,08,21,15,09,38.60
2016,08,21,15,10,32.20
2016,08,21,15,11,40.20
2016,08,21,15,12,37.00
2016,08,21,15,13,40.20
2016,08,21,15,14,30.60
2016,08,21,15,15,29.00
2016,08,21,15,16,22.50
2016,08,21,15,17,30.60
2016,08,21,15,18,29.00
2016,08,21,15,19,30.60
2016,08,21,15,20,20.90
2016,08,21,15,21,33.80
2016,08,21,15,22,40.20
2016,08,21,15,23,33.80
2016,08,21,15,24,35.40
2016,08,21,15,25,33.80
2016,08,21,15,26,40.20
2016,08,21,15,27,41.80
2016,08,21,15,28,38.60
2016,08,21,15,29,35.40
2016,08,21,15,30,35.40
2016,08,21,15,31,30.60
2016,08,21,15,32,37.00
2016,08,21,15,33,25.70
2016,08,21,15,34,35.40
2016,08,21,15,35,30.60
2016,08,21,15,36,38.60
2016,08,21,15,37,32.20
2016,08,21,15,38,35.40
2016,08,21,15,39,41.80
2016,08,21,15,40,33.80
2016,08,21,15,41,27.40
2016,08,21,15,42,27.40
2016,08,21,15,43,24.20
2016,08,21,15,44,30.60
2016,08,21,15,45,30.60
2016,08,21,15,46,45.10
2016,08,21,15,47,43.50
2016,08,21,15,48,35.40
2016,08,21,15,49,33.80
2016,08,21,15,50,29.00
2016,08,21,15,51,32.20
2016,08,21,15,52,33.80
2016,08,21,15,53,41.80
2016,08,21,15,54,29.00
2016,08,21,15,55,33.80
2016,08,21,15,56,32.20
2016,08,21,15,57,30.60
2016,08,21,15,58,30.60
2016,08,21,15,59,30.60
2016,08,21,16,00,30.60
2016,08,21,16,01,20.90
2016,08,21,16,02,27.40
2016,08,21,16,03,30.60
2016,08,21,16,04,37.00
2016,08,21,16,05,33.80
2016,08,21,16,06,25.70
2016,08,21,16,07,22.50
2016,08,21,16,08,22.50
2016,08,21,16,09,12.90
2016,08,21,16,10,17.70
2016,08,21,16,11,24.20
2016,08,21,16,12,25.70
2016,08,21,16,13,30.60
2016,08,21,16,14,25.70
2016,08,21,16,15,29.00
2016,08,21,16,16,30.60
2016,08,21,16,17,29.00
2016,08,21,16,18,32.20
2016,08,21,16,19,24.20
2016,08,21,16,20,25.70
2016,08,21,16,21,22.50
2016,08,21,16,22,29.00
2016,08,21,16,23,20.90
2016,08,21,16,24,25.70
2016,08,21,16,25,29.00
2016,08,21,16,26,30.60
2016,08,21,16,27,38.60
2016,08,21,16,28,30.60
2016,08,21,16,29,33.80
2016,08,21,16,30,25.70
2016,08,21,16,31,30.60
2016,08,21,16,32,27.40
2016,08,21,16,33,29.00
2016,08,21,16,34,27.40
2016,08,21,16,35,22.50
2016,08,21,16,36,22.50
2016,08,21,16,37,27.40
2016,08,21,16,38,20.90
2016,08,21,16,39,33.80
2016,08,21,16,40,33.80
2016,08,21,16,41,35.40
2016,08,21,16,42,29.00
2016,08,21,16,43,29.00
2016,08,21,16,44,32.20
2016,08,21,16,45,37.00
2016,08,21,16,46,32.20
2016,08,21,16,47,29.00
2016,08,21,16,48,30.60
2016,08,21,16,49,24.20
2016,08,21,16,50,22.50
2016,08,21,16,51,17.70
2016,08,21,16,52,29.00
2016,08,21,16,53,27.40
2016,08,21,16,54,20.90
2016,08,21,16,55,20.90
2016,08,21,16,56,24.20
2016,08,21,16,57,20.90
2016,08,21,16,58,25.70
2016,08,21,16,59,27.40
2016,08,21,17,00,24.20
2016,08,21,17,01,27.40
2016,08,21,17,02,25.70
2016,08,21,17,03,29.00
2016,08,21,17,04,29.00
2016,08,21,17,05,24.20
2016,08,21,17,06,22.50
2016,08,21,17,07,25.70
2016,08,21,17,08,30.60
2016,08,21,17,09,24.20
2016,08,21,17,10,20.90
2016,08,21,17,11,25.70
2016,08,21,17,12,25.70
2016,08,21,17,13,22.50
2016,08,21,17,14,20.90
2016,08,21,17,15,20.90
2016,08,21,17,16,25.70
2016,08,21,17,17,20.90
2016,08,21,17,18,20.90
2016,08,21,17,19,20.90
2016,08,21,17,20,33.80
2016,08,21,17,21,29.00
2016,08,21,17,22,19.30
2016,08,21,17,23,25.70
2016,08,21,17,24,27.40
2016,08,21,17,25,25.70
2016,08,21,17,26,20.90
2016,08,21,17,27,29.00
2016,08,21,17,28,22.50
2016,08,21,17,29,19.30
2016,08,21,17,30,24.20
2016,08,21,17,31,20.90
2016,08,21,17,32,27.40
2016,08,21,17,33,29.00
2016,08,21,17,34,22.50
2016,08,21,17,35,12.90
2016,08,21,17,36,12.90
2016,08,21,17,37,24.20
2016,08,21,17,38,22.50
2016,08,21,17,39,20.90
2016,08,21,17,40,17.70
2016,08,21,17,41,27.40
2016,08,21,17,42,22.50
2016,08,21,17,43,17.70
2016,08,21,17,44,20.90
2016,08,21,17,45,16.10
2016,08,21,17,46,22.50
2016,08,21,17,47,24.20
2016,08,21,17,48,29.00
2016,08,21,17,49,27.40
2016,08,21,17,50,19.30
2016,08,21,17,51,16.10
2016,08,21,17,52,17.70
2016,08,21,17,53,25.70
2016,08,21,17,54,27.40
2016,08,21,17,55,22.50
2016,08,21,17,56,25.70
2016,08,21,17,57,30.60
2016,08,21,17,58,33.80
2016,08,21,17,59,22.50
2016,08,21,18,00,24.20
2016,08,21,18,01,30.60
2016,08,21,18,02,17.70
2016,08,21,18,03,24.20
2016,08,21,18,04,24.20
2016,08,21,18,05,17.70
2016,08,21,18,06,19.30
2016,08,21,18,07,29.00
2016,08,21,18,08,20.90
2016,08,21,18,09,20.90
2016,08,21,18,10,25.70
2016,08,21,18,11,25.70
2016,08,21,18,12,25.70
2016,08,21,18,13,24.20
2016,08,21,18,14,20.90
2016,08,21,18,15,20.90
2016,08,21,18,16,20.90
2016,08,21,18,17,17.70
2016,08,21,18,18,16.10
2016,08,21,18,19,27.40
2016,08,21,18,20,19.30
2016,08,21,18,21,12.90
2016,08,21,18,22,30.60
2016,08,21,18,23,22.50
2016,08,21,18,24,16.10
2016,08,21,18,25,19.30
2016,08,21,18,26,20.90
2016,08,21,18,27,22.50
2016,08,21,18,28,19.30
2016,08,21,18,29,11.30
2016,08,21,18,30,14.50
2016,08,21,18,31,24.20
2016,08,21,18,32,24.20
2016,08,21,18,33,14.50
2016,08,21,18,34,22.50
2016,08,21,18,35,17.70
2016,08,21,18,36,12.90
2016,08,21,18,37,19.30
2016,08,21,18,38,19.30
2016,08,21,18,39,17.70
2016,08,21,18,40,19.30
2016,08,21,18,41,25.70
2016,08,21,18,42,29.00
2016,08,21,18,43,29.00
2016,08,21,18,44,24.20
2016,08,21,18,45,25.70
2016,08,21,18,46,27.40
2016,08,21,18,47,25.70
2016,08,21,18,48,19.30
2016,08,21,18,49,24.20
2016,08,21,18,50,29.00
2016,08,21,18,51,17.70
2016,08,21,18,52,25.70
2016,08,21,18,53,19.30
2016,08,21,18,54,29.00
2016,08,21,18,55,29.00
2016,08,21,18,56,20.90
2016,08,21,18,57,19.30
2016,08,21,18,58,24.20
2016,08,21,18,59,22.50
2016,08,21,19,00,17.70
2016,08,21,19,01,22.50
2016,08,21,19,02,20.90
2016,08,21,19,03,16.10
2016,08,21,19,04,19.30
2016,08,21,19,05,12.90
2016,08,21,19,06,17.70
2016,08,21,19,07,17.70
2016,08,21,19,08,16.10
2016,08,21,19,09,14.50
2016,08,21,19,10,19.30
2016,08,21,19,11,19.30
2016,08,21,19,12,16.10
2016,08,21,19,13,22.50
2016,08,21,19,14,16.10
2016,08,21,19,15,20.90
2016,08,21,19,16,16.10
2016,08,21,19,17,22.50
2016,08,21,19,18,17.70
2016,08,21,19,19,17.70
2016,08,21,19,20,22.50
2016,08,21,19,21,22.50
2016,08,21,19,22,19.30
2016,08,21,19,23,19.30
2016,08,21,19,24,14.50
2016,08,21,19,25,22.50
2016,08,21,19,26,19.30
2016,08,21,19,27,19.30
2016,08,21,19,28,14.50
2016,08,21,19,29,25.70
2016,08,21,19,30,25.70
2016,08,21,19,31,14.50
2016,08,21,19,32,19.30
2016,08,21,19,33,24.20
2016,08,21,19,34,16.10
2016,08,21,19,35,22.50
2016,08,21,19,36,16.10
2016,08,21,19,37,14.50
2016,08,21,19,38,17.70
2016,08,21,19,39,17.70
2016,08,21,19,40,9.60
2016,08,21,19,41,19.30
2016,08,21,19,42,16.10
2016,08,21,19,43,16.10
2016,08,21,19,44,8.10
2016,08,21,19,45,16.10
2016,08,21,19,46,17.70
2016,08,21,19,47,16.10
2016,08,21,19,48,14.50
2016,08,21,19,49,12.90
2016,08,21,19,50,22.50
2016,08,21,19,51,14.50
2016,08,21,19,52,16.10
2016,08,21,19,53,11.30
2016,08,21,19,54,14.50
2016,08,21,19,55,19.30
2016,08,21,19,56,20.90
2016,08,21,19,57,17.70
2016,08,21,19,58,20.90
2016,08,21,19,59,14.50
2016,08,21,20,00,14.50
2016,08,21,20,01,20.90
2016,08,21,20,02,20.90
2016,08,21,20,03,24.20
2016,08,21,20,04,20.90
2016,08,21,20,05,16.10
2016,08,21,20,06,17.70
2016,08,21,20,07,16.10
2016,08,21,20,08,22.50
2016,08,21,20,09,22.50
2016,08,21,20,10,22.50
2016,08,21,20,11,9.60
2016,08,21,20,12,12.90
2016,08,21,20,13,12.90
2016,08,21,20,14,24.20
2016,08,21,20,15,17.70
2016,08,21,20,16,16.10
2016,08,21,20,17,17.70
2016,08,21,20,18,11.30
2016,08,21,20,19,12.90
2016,08,21,20,20,14.50
2016,08,21,20,21,14.50
2016,08,21,20,22,14.50
2016,08,21,20,23,16.10
2016,08,21,20,24,8.10
2016,08,21,20,25,8.10
2016,08,21,20,26,8.10
2016,08,21,20,27,8.10
2016,08,21,20,28,19.30
2016,08,21,20,29,16.10